Location: Oshawa
(43.9000°N, 78.8670°W)
Time: 15:48:55
(UTC-04:00)

Altair - Visible Passes

Search period start: 31 August 2015 00:00
Search period end: 10 September 2015 00:00
Orbit: 1502 x 1682 km, 47.2° (Epoch: 31 August)

Date Brightness Start Highest point End Pass type
(mag) Time Alt. Az. Time Alt. Az. Time Alt. Az.
31 Aug 7.5 20:56:03 10° WNW 21:05:29 86° SSW 21:12:48 18° ESE visible
31 Aug 8.1 23:01:12 10° WNW 23:09:30 37° SW 23:10:49 36° SSW visible
01 Sep 7.5 20:30:51 10° WNW 20:40:21 89° SSW 20:48:54 13° ESE visible
01 Sep 8.0 22:35:59 10° WNW 22:44:27 40° SW 22:46:54 34° S visible
02 Sep 7.6 20:05:39 10° WNW 20:15:12 88° NNE 20:24:26 10° ESE visible
02 Sep 8.0 22:10:45 10° WNW 22:19:24 44° SW 22:23:03 31° S visible
03 Sep 9.4 00:21:02 10° WSW 00:21:03 10° WSW 00:21:03 10° WSW visible
03 Sep 8.0 21:45:32 10° WNW 21:54:20 47° SW 21:59:14 26° SSE visible
03 Sep 9.3 23:54:02 10° WSW 23:57:16 12° WSW 23:57:16 12° WSW visible
04 Sep 7.9 21:20:19 10° WNW 21:29:16 51° SW 21:35:29 20° SSE visible
04 Sep 9.2 23:27:58 10° W 23:32:24 14° SW 23:33:31 13° SW visible
05 Sep 7.9 20:55:07 10° WNW 21:04:11 54° SW 21:11:48 15° SE visible
05 Sep 9.1 23:02:12 10° W 23:07:24 16° SW 23:09:50 14° SW visible
06 Sep 7.9 20:29:55 10° WNW 20:39:06 58° SW 20:48:00 10° SE visible
06 Sep 9.1 22:36:34 10° W 22:42:24 18° SW 22:46:13 13° SSW visible
07 Sep 7.9 20:04:43 10° WNW 20:14:01 62° SW 20:23:00 10° SE visible
07 Sep 9.1 22:11:03 10° W 22:17:23 20° SW 22:22:40 12° SSW visible
08 Sep 9.0 21:45:35 10° W 21:52:22 22° SW 21:58:44 10° S visible
09 Sep 9.0 21:20:10 10° W 21:27:21 25° SW 21:34:08 10° S visible
